C/2014 R4 ( Gibbs )

Japanese version
Home page
Updated on June 11, 2016

---------------------------------------------------------------------

* Profile

Discovery Date September 14, 2014
Magnitude 16.5 mag
Discoverer A. R. Gibbs (Catalina Sky Survey)

* Pictures

* Orbital Elements

Epoch 2014 Oct. 30.0 TT = JDT 2456960.5
T 2014 Oct. 21.51267 TT                                 MPCW
q   1.8179540            (2000.0)            P               Q
z  +0.0003209      Peri.  180.83980     -0.17621567     -0.72562907
 +/-0.0000167      Node   279.52984     +0.90701151     +0.14285016
e   0.9994166      Incl.   42.41123     +0.38246328     -0.67309456
From 116 observations 2014 Aug. 20-Dec. 20, mean residual 0".6.

* Finding Charts

* Magnitudes Graph

        m1 = 12.0 + 5 log d + 10.0 log r

---------------------------------------------------------------------

The orbital elements are published on M.P.E.C. 2015-E14.
The charts are made with StellaNavigator Ver.8 (AstroArts).
The magnitudes graphs are made with Comet for Windows.

---------------------------------------------------------------------

Copyright(C) Seiichi Yoshida (comet@aerith.net). All rights reserved.